Weather in Nikulino

Russia / Ulyanovsk Oblast     53°09′01″N   47°03′09″E
temp.,
°C
wind,
m/s
gust,
m/s
humid.,
%
clouds,
%
prec.,
mm/h
press.,
hPa
HPBL,
m
7 march, sun
sun701:00−13w229241 0.0 101321
04:00−13w129666 0.0 101320
07:00−11wnw2496100 0.7 1013107
10:00−10w359366 0.7 1013235
13:00−7wsw69840 0.0 1013844
16:00−7sw6108447 0.0 1010943
19:00−8ssw71490100 0.1 1007777
22:00−6sw91693100 0.9 10041079
8 march, mon
mon801:00−5sw101792100 1.3 1000995
04:00−3sw101792100 1.8 9981050
07:00−4wsw7158589 0.3 999725
10:00−6wsw7138080 0.4 1002926
13:00−3wsw712760 0.0 10021376
16:00−3sw7108450 0.1 10011128
19:00−5wsw7158967 0.3 1002662
22:00−9w6138664 0.4 1005387
9 march, tue
tue901:00−11w511932 0.0 1008230
04:00−14w34962 0.0 101050
07:00−16wsw33970 0.0 101123
10:00−11w22920 0.0 1012133
13:00−7nnw128048 0.0 1011546
16:00−6nnw127574 0.1 1011752
19:00−9nw3392100 0.1 101151
22:00−10nnw5994100 0.4 1012392
10 march, wed
wed1001:00−15nw489496 0.1 1013182
04:00−18nw499678 0.1 1015190
07:00−20nw489780 0.0 1016194
10:00−18nw6109280 0.0 1018440
13:00−15nw688797 0.0 1019707
16:00−16nw698699 0.1 1020800
19:00−20nw51093100 0.1 1022361
22:00−24nw499695 0.1 1025208
11 march, thu
thu1101:00−26nw479823 0.0 1026129
04:00−27nw479822 0.0 1027118
07:00−27nw47971 0.0 102889
10:00−21nw48921 0.0 1029263
13:00−16nw47870 0.0 1028503
16:00−14wnw578841 0.0 1028502
19:00−17wnw5109488 0.0 1029284
22:00−18nw369791 0.1 1031125